Torna al catalogo

KUIPER-00413

AttivoComunicazioniLEO
NORAD 68928·PAYLOAD·🇺🇸 United States

Lanciato Apr 30, 2026 da Guiana Space Centre

Loading…

Prossimi Passaggi (prossime 24 ore)

TLE

AggiornatoSource: CelesTrak SupGP

Epoca: Sep 14, 2026, 22:27 UTC

1 68928C 26098K   26257.93591435  .00003764  00000+0  49266-3 0  2575
2 68928  51.9003  23.7845 0000762 152.7334 319.4178 14.79933254    13

Traccia KUIPER-00413 in tempo reale con AllMySat

Download on the App Store